Location: Unspecified
(0.0000°N, 0.0000°E)
Time: 22:16:10
(UTC+00:00)

Envisat - Pass Details

Date: 29 November 2022
Orbit: 763 x 765 km, 98.2° (Epoch: 02 December)

Event Time Altitude Azimuth Distance (km) Brightness Sun altitude
Exits shadow 03:48:37 65° 41° (NE) 834 3.1 -27.6°
Maximum altitude 03:49:17 78° 102° (ESE) 784 3.0 -27.5°
Drops below altitude 10° 03:54:21 10° 188° (S) 2,300 5.6 -26.3°
Sets 03:56:40 0° 189° (S) 3,228 6.4 -25.8°
